Home > Weather > Speyer > Past weeks

Flag for Germany Past Weather in Speyer, Rhineland-Palatinate, Germany — Yesterday and Last 2 Weeks

Now
61 °F

Passing clouds.


Feels Like: 61 °F
Forecast: 56 / 70 °F
Wind: 5 mph from West

Location: Mannheim City

Current Time: Jun 1, 2016 at 9:31:25 AM

Latest Report: Jun 1, 2016 at 8:50 AM


Visibility: N/A

Pressure: 29.95 "Hg

Humidity: 83%

Dew Point: 55 °F

Location of SpeyerLocation

Past Weather in Speyer — Graph

°F

Speyer Temperature Yesterday

Maximum temperature yesterday: 70 °F (at 4:20 PM)
Minimum temperature yesterday: 57 °F (at 5:20 AM)
Average temperature yesterday: 65 °F

High & Low Weather Summary for the Past Weeks

 TemperatureHumidityPressure
High81 °F (May 22, 2:50 PM)100% (May 17, 8:20 AM)30.15 "Hg (May 17, 8:20 AM)
Low46 °F (May 20, 5:20 AM)28% (May 22, 4:20 PM)29.59 "Hg (May 30, 5:50 AM)
Average63 °F69%29.91 "Hg
* Reported May 17 8:20 AM — Jun 1 8:20 AM, Speyer, Weather by CustomWeather, © 2016

Note: Actual official high and low records may vary slightly from our data, if they occured in-between our weather recording intervals... More about our weather records

Advertising

Speyer Weather History for the Previous 24 Hours

Scroll right to see more
 ConditionsComfort  
Time TempWeatherWind HumidityBarometerVisibility
8:20 AM
Wed, Jun 1
59 °FPassing clouds.3 mph88%29.95 "HgN/A
7:50 AM59 °FSunny.3 mph88%29.95 "Hg10 mi
7:20 AM57 °FSunny.3 mph94%29.95 "Hg10 mi
6:50 AM55 °FSunny.3 mph100%29.95 "Hg10 mi
6:20 AM54 °FClear.2 mph100%29.95 "Hg10 mi
5:50 AM54 °FClear.2 mph100%29.95 "Hg10 mi
9:20 PM
Tue, May 31
64 °FSunny.5 mph68%29.89 "Hg10 mi
8:50 PM64 °FSunny.6 mph68%29.89 "Hg10 mi
8:20 PM66 °FScattered clouds.5 mph64%29.89 "HgN/A
7:50 PM68 °FPassing clouds.5 mph60%29.89 "HgN/A
7:20 PM68 °FPassing clouds.7 mph60%29.89 "HgN/A
6:50 PM68 °FScattered clouds.5 mph60%29.86 "HgN/A
6:20 PM70 °FScattered clouds.6 mph53%29.86 "HgN/A
5:50 PM70 °FPassing clouds.8 mph53%29.86 "HgN/A
5:20 PM68 °FPassing clouds.7 mph56%29.86 "HgN/A
4:50 PM70 °FPartly sunny.6 mph57%29.86 "HgN/A
4:20 PM70 °FPassing clouds.5 mph53%29.86 "HgN/A
3:50 PM68 °FPassing clouds.7 mph56%29.86 "HgN/A
3:20 PM68 °FPartly sunny.8 mph60%29.86 "HgN/A
2:50 PM68 °FBroken clouds.6 mph60%29.86 "HgN/A
2:20 PM68 °FBroken clouds.8 mph56%29.86 "HgN/A
1:50 PM68 °FBroken clouds.8 mph56%29.86 "HgN/A
1:20 PM66 °FScattered clouds.8 mph60%29.86 "HgN/A
12:50 PM66 °FBroken clouds.8 mph60%29.86 "HgN/A
12:20 PM64 °FBroken clouds.9 mph64%29.86 "HgN/A
11:50 AM64 °FBroken clouds.10 mph64%29.86 "HgN/A
11:20 AM64 °FBroken clouds.12 mph68%29.83 "HgN/A
10:50 AM63 °FBroken clouds.9 mph73%29.83 "HgN/A
10:20 AM63 °FPartly sunny.10 mph68%29.83 "HgN/A
9:20 AM63 °FPartly sunny.9 mph68%29.83 "HgN/A
Weather by CustomWeather, © 2016

See weather overviewHow to use our weather pages